Location: Chervonnoye
(48.6000°N, 34.4000°E)
Time: 07:18:00
(UTC+00:00)

Nadezhda 1 Rocket - Pass Details

Date: 22 April 2021
Orbit: 940 x 1006 km, 83.0° (Epoch: 13 May)

Event Time Altitude Azimuth Distance (km) Brightness Sun altitude
Exits shadow 20:35:38 23° 87° (E) 2,015 5.5 -27.2°
Maximum altitude 20:36:02 23° 81° (E) 2,008 5.5 -27.2°
Drops below altitude 10° 20:40:48 10° 33° (NNE) 2,779 6.8 -27.5°
Sets 20:43:51 0° 19° (NNE) 3,725 7.8 -27.6°
